TimePST,TemperatureF,Dew PointF,Humidity,Sea Level PressureIn,VisibilityMPH,Wind Direction,Wind SpeedMPH,Gust SpeedMPH,PrecipitationIn,Events,Conditions,WindDirDegrees,DateUTC
12:00 AM,39.4,36.0,88,30.03,-9999.0,NNW,4.6,-,N/A,,Unknown,330,2013-01-28 08:00:00
1:00 AM,39.2,35.2,86,30.03,-9999.0,North,8.1,-,N/A,,Unknown,350,2013-01-28 09:00:00
2:00 AM,39.0,35.6,88,30.04,-9999.0,North,3.5,-,0.02,,Unknown,360,2013-01-28 10:00:00
3:00 AM,38.8,35.8,89,30.03,-9999.0,NNE,2.3,-,0.03,,Unknown,30,2013-01-28 11:00:00
4:00 AM,39,36,84,30.04,,Calm,Calm,,,,,,2013-01-28 12:00:00
5:00 AM,39.4,36.7,90,30.01,-9999.0,SE,4.6,-,0.04,,Unknown,130,2013-01-28 13:00:00
6:00 AM,39.2,36.3,89,30.00,-9999.0,SW,9.2,-,0.05,,Unknown,220,2013-01-28 14:00:00
7:00 AM,39.2,35.8,88,29.99,-9999.0,SW,6.9,-,0.04,,Unknown,220,2013-01-28 15:00:00
8:00 AM,39.4,36.3,89,29.98,-9999.0,SSW,11.5,-,0.05,,Unknown,200,2013-01-28 16:00:00
9:00 AM,39.4,36.7,90,29.97,-9999.0,SSW,9.2,-,0.07,,Unknown,210,2013-01-28 17:00:00
10:00 AM,40,37,83,29.98,,NNE,9.2,,,,,30,2013-01-28 18:00:00
10:00 AM,39.7,36.7,89,29.98,-9999.0,NNE,9.2,-,0.16,,Unknown,30,2013-01-28 18:00:00
11:00 AM,41.7,39.2,91,29.98,-9999.0,WNW,19.6,-,0.09,,Unknown,290,2013-01-28 19:00:00
12:00 PM,39.0,36.9,92,30.00,-9999.0,East,8.1,-,0.14,,Unknown,80,2013-01-28 20:00:00
1:00 PM,40.6,38.7,93,29.99,-9999.0,North,3.5,-,0.15,,Unknown,10,2013-01-28 21:00:00
3:00 PM,42.4,40.5,93,29.99,-9999.0,WNW,18.4,24.2,0.11,,Unknown,290,2013-01-28 23:00:00
4:00 PM,42,39,85,30.00,,WNW,18.4,,,,,300,2013-01-29 00:00:00
4:00 PM,41.7,39.0,90,30.00,-9999.0,WNW,18.4,-,0.08,,Unknown,300,2013-01-29 00:00:00
5:00 PM,42.4,40.3,92,30.01,-9999.0,WNW,12.7,21.9,0.08,,Unknown,300,2013-01-29 01:00:00
6:00 PM,42.4,40.5,93,30.02,-9999.0,WNW,19.6,-,0.05,,Unknown,290,2013-01-29 02:00:00
7:00 PM,42.8,41.0,93,30.03,-9999.0,WNW,16.1,24.2,0.05,,Unknown,300,2013-01-29 03:00:00
8:00 PM,43.2,41.5,94,30.03,-9999.0,WNW,20.7,-,0.06,,Unknown,290,2013-01-29 04:00:00
9:00 PM,42.8,41.2,94,30.06,-9999.0,WNW,18.4,-,0.05,,Unknown,300,2013-01-29 05:00:00
10:00 PM,43,42,93,30.07,,NW,12.7,,,,,310,2013-01-29 06:00:00
10:00 PM,43.2,41.7,95,30.07,-9999.0,NW,12.7,21.9,0.04,,Unknown,310,2013-01-29 06:00:00
11:00 PM,43.2,41.5,94,30.09,-9999.0,NW,13.8,-,0.02,,Unknown,310,2013-01-29 07:00:00